Weather History for Topeka Forbes, KS

Change the Weather History Date:

Monday, January 21, 2013

  Actual Average Record
Temperature  
Mean Temperature 16 °F -  
Max Temperature 23 °F 38 °F 69 °F (1957)
Min Temperature 10 °F 20 °F -5 °F (1954)
Degree Days  
Heating Degree Days 48    
Moisture  
Dew Point 7 °F    
Average Humidity 64    
Maximum Humidity 84    
Minimum Humidity 46    
Precipitation  
Precipitation 0.00 in - - ()
Sea Level Pressure  
Sea Level Pressure 30.44 in    
Wind  
Wind Speed 5 mph (NNE)    
Max Wind Speed 9 mph    
Max Gust Speed -    
Visibility 10 miles    
Events      
Averages and records for this station are not official NWS values.
T = Trace of Precipitation, MM = Missing Value Source: NWS Daily Summary

Daily Weather History Graph

Daily Weather History Graph

Search for Another Location

Airport:

Trip Planner

Search our weather history database for the weather conditions in past years. The results will help you decide how hot, cold, wet, or windy it might be!

Date:

Astronomy

Jan. 21, 2013 Rise Set
Actual Time 7:36 AM CST 5:31 PM CST
Civil Twilight 7:08 AM CST 6:00 PM CST
Nautical Twilight 6:35 AM CST 6:32 PM CST
Astronomical Twilight 6:03 AM CST 7:04 PM CST
Moon 1:12 PM CST (1/21) 3:05 AM CST (1/21)
Length of Visible Light 10h 52m
Length of Day
9h 54m
Waxing Gibbous, 75% of the Moon is Illuminated
Jan 21
Waxing Gibbous
Jan 26
Full
Feb 3
Last Quarter
Feb 10
New
Feb 17
First Quarter

Hourly Weather History & Observations

Time (CST) Temp. Windchill Dew Point Humidity Pressure Visibility Wind Dir Wind Speed Gust Speed Precip Events Conditions
12:53 AM 19.0 °F 12.3 °F 7.0 °F 59% 30.43 in 8.0 mi North 4.6 mph - N/A   Clear
1:53 AM 16.0 °F 7.4 °F 7.0 °F 68% 30.45 in 10.0 mi NNW 5.8 mph - N/A   Clear
2:53 AM 14.0 °F 8.2 °F 7.0 °F 74% 30.47 in 10.0 mi NW 3.5 mph - N/A   Clear
3:53 AM 15.1 °F - 8.1 °F 74% 30.43 in 10.0 mi Calm Calm - N/A   Clear
4:53 AM 10.9 °F - 7.0 °F 84% 30.43 in 10.0 mi Calm Calm - N/A   Partly Cloudy
6:53 AM 15.1 °F - 10.0 °F 80% 30.44 in 10.0 mi Calm Calm - N/A   Overcast
7:53 AM 15.1 °F 7.7 °F 10.0 °F 80% 30.45 in 10.0 mi West 4.6 mph - N/A   Mostly Cloudy
8:53 AM 19.0 °F 8.2 °F 10.9 °F 71% 30.46 in 10.0 mi NNE 9.2 mph - N/A   Overcast
9:53 AM 19.9 °F 12.1 °F 10.9 °F 68% 30.47 in 10.0 mi NNE 5.8 mph - N/A   Overcast
10:53 AM 19.9 °F 11.1 °F 9.0 °F 62% 30.48 in 10.0 mi NNE 6.9 mph - N/A   Overcast
11:53 AM 21.9 °F 13.4 °F 9.0 °F 58% 30.48 in 10.0 mi North 6.9 mph - N/A   Overcast
12:53 PM 23.0 °F 13.1 °F 8.1 °F 53% 30.46 in 10.0 mi North 9.2 mph - N/A   Overcast
1:53 PM 23.0 °F 13.1 °F 6.1 °F 48% 30.44 in 10.0 mi NNW 9.2 mph - N/A   Overcast
2:53 PM 21.9 °F 13.4 °F 5.0 °F 48% 30.44 in 10.0 mi North 6.9 mph - N/A   Overcast
3:53 PM 21.9 °F 15.7 °F 3.9 °F 46% 30.41 in 10.0 mi ENE 4.6 mph - N/A   Overcast
4:53 PM 21.0 °F 11.4 °F 3.9 °F 48% 30.42 in 10.0 mi NNE 8.1 mph - N/A   Overcast
5:53 PM 18.0 °F 9.8 °F 5.0 °F 57% 30.41 in 10.0 mi NE 5.8 mph - N/A   Mostly Cloudy
6:53 PM 16.0 °F 7.4 °F 5.0 °F 62% 30.40 in 10.0 mi NNE 5.8 mph - N/A   Clear
7:53 PM 15.1 °F 7.7 °F 6.1 °F 68% 30.41 in 10.0 mi NE 4.6 mph - N/A   Clear
8:53 PM 15.1 °F - 5.0 °F 64% 30.42 in 10.0 mi Calm Calm - N/A   Partly Cloudy
9:53 PM 15.1 °F 9.4 °F 7.0 °F 70% 30.43 in 10.0 mi NNE 3.5 mph - N/A   Overcast
10:53 PM 15.1 °F - 7.0 °F 70% 30.42 in 10.0 mi Calm Calm - N/A   Mostly Cloudy
11:53 PM 16.0 °F 8.8 °F 6.1 °F 65% 30.40 in 10.0 mi NNE 4.6 mph - N/A   Overcast